,,Stat6,,Stat2,,Stat8,,Stat9,,Stat10,,Wind1,,Wind1,
time,status,PA1M_AVG,status,PR1M_SUM,status,RH1M_AVG,status,SR1M_AVG,status,TA1M_AVG,status,W1dAve1m,status,W1sAve1m,
2009-06-07, 00:00:00,VALID,917.222,VALID,0,VALID,100,VALID,0.0339617,VALID,21.839,VALID,35,VALID,0,
2009-06-07, 00:01:00,VALID,917.221,VALID,0,VALID,100,VALID,0.0339617,VALID,21.8549,VALID,35,VALID,0,
2009-06-07, 00:02:01,VALID,917.219,VALID,0,VALID,100,VALID,-0.0169808,VALID,21.8788,VALID,34,VALID,0,
2009-06-07, 00:03:01,VALID,917.207,VALID,0,VALID,100,VALID,-0.0169808,VALID,21.895,VALID,30,VALID,0,
2009-06-07, 00:04:01,VALID,917.21,VALID,0,VALID,100,VALID,0.0169808,VALID,21.885,VALID,30,VALID,0,
2009-06-07, 00:05:00,VALID,917.217,VALID,0,VALID,100,VALID,0.0169808,VALID,21.888,VALID,30,VALID,0,
2009-06-07, 00:06:00,VALID,917.247,VALID,0,VALID,100,VALID,0.0169808,VALID,21.8812,VALID,30,VALID,0,
2009-06-07, 00:07:01,VALID,917.26,VALID,0,VALID,100,VALID,0,VALID,21.8785,VALID,30,VALID,0,
2009-06-07, 00:08:01,VALID,917.265,VALID,0,VALID,100,VALID,0.0339617,VALID,21.8918,VALID,30,VALID,0,
2009-06-07, 00:09:01,VALID,917.28,VALID,0,VALID,100,VALID,0,VALID,21.8882,VALID,30,VALID,0,
2009-06-07, 00:10:00,VALID,917.28,VALID,0,VALID,100,VALID,0,VALID,21.911,VALID,30,VALID,0,
2009-06-07, 00:11:00,VALID,917.274,VALID,0,VALID,100,VALID,0,VALID,21.9077,VALID,29,VALID,0,
2009-06-07, 00:12:00,VALID,917.26,VALID,0,VALID,100,VALID,0.0169808,VALID,21.934,VALID,26,VALID,0,
2009-06-07, 00:13:01,VALID,917.236,VALID,0,VALID,100,VALID,-0.0169808,VALID,21.96,VALID,25,VALID,0,
2009-06-07, 00:14:01,VALID,917.237,VALID,0,VALID,100,VALID,0.0169808,VALID,21.9827,VALID,21,VALID,0,
2009-06-07, 00:15:00,VALID,917.222,VALID,0,VALID,100,VALID,0,VALID,21.9989,VALID,41,VALID,0,
2009-06-07, 00:16:01,VALID,917.231,VALID,0,VALID,100,VALID,0,VALID,22.0252,VALID,41,VALID,0,
2009-06-07, 00:17:01,VALID,917.225,VALID,0,VALID,100,VALID,0,VALID,22.0444,VALID,42,VALID,0,
2009-06-07, 00:18:01,VALID,917.239,VALID,0,VALID,100,VALID,0.0169808,VALID,22.0571,VALID,32,VALID,0,
2009-06-07, 00:19:01,VALID,917.229,VALID,0,VALID,99.9868,VALID,0.0169808,VALID,22.0606,VALID,19,VALID,0,
2009-06-07, 00:20:01,VALID,917.204,VALID,0,VALID,99.8934,VALID,0,VALID,22.0603,VALID,21,VALID,0,
2009-06-07, 00:21:01,VALID,917.199,VALID,0,VALID,99.7396,VALID,0,VALID,22.0574,VALID,22,VALID,0,
2009-06-07, 00:22:01,VALID,917.175,VALID,0,VALID,99.6887,VALID,-0.0169808,VALID,22.0509,VALID,23,VALID,0,
2009-06-07, 00:23:01,VALID,917.167,VALID,0,VALID,99.5374,VALID,0,VALID,22.0184,VALID,19,VALID,0,
2009-06-07, 00:24:00,VALID,917.141,VALID,0,VALID,99.6544,VALID,0,VALID,21.9984,VALID,23,VALID,0,
2009-06-07, 00:25:00,VALID,917.125,VALID,0,VALID,99.7065,VALID,0,VALID,22.0022,VALID,23,VALID,0,
2009-06-07, 00:26:00,VALID,917.119,VALID,0,VALID,99.7726,VALID,-0.0169808,VALID,22.0119,VALID,23,VALID,0,
2009-06-07, 00:27:00,VALID,917.122,VALID,0,VALID,99.6658,VALID,0.0169808,VALID,22.0246,VALID,23,VALID,0,
2009-06-07, 00:28:00,VALID,917.135,VALID,0,VALID,99.5603,VALID,0.0169808,VALID,22.0243,VALID,23,VALID,0,
2009-06-07, 00:29:00,VALID,917.131,VALID,0,VALID,99.3937,VALID,0.0339617,VALID,21.9986,VALID,17,VALID,0,
2009-06-07, 00:30:00,VALID,917.123,VALID,0,VALID,99.517,VALID,0.0169808,VALID,21.9892,VALID,15,VALID,0,
2009-06-07, 00:31:00,VALID,917.098,VALID,0,VALID,99.6531,VALID,0,VALID,21.9986,VALID,15,VALID,0,
2009-06-07, 00:32:00,VALID,917.075,VALID,0,VALID,99.5272,VALID,0.0339617,VALID,21.9824,VALID,15,VALID,0,
2009-06-07, 00:33:00,VALID,917.052,VALID,0,VALID,99.615,VALID,0.0339617,VALID,21.9724,VALID,15,VALID,0,
2009-06-07, 00:34:00,VALID,917.01,VALID,0,VALID,99.6442,VALID,0.0339617,VALID,21.9854,VALID,15,VALID,0,
2009-06-07, 00:35:00,VALID,916.983,VALID,0,VALID,99.6289,VALID,0.0339617,VALID,21.9851,VALID,15,VALID,0,
2009-06-07, 00:36:00,VALID,916.969,VALID,0,VALID,99.7103,VALID,0,VALID,21.9954,VALID,15,VALID,0,
2009-06-07, 00:37:00,VALID,916.964,VALID,0,VALID,99.6646,VALID,0.0169808,VALID,21.9789,VALID,14,VALID,0,
2009-06-07, 00:38:00,VALID,916.966,VALID,0,VALID,99.7561,VALID,0.0509425,VALID,21.9556,VALID,12,VALID,0,
2009-06-07, 00:39:00,VALID,916.969,VALID,0,VALID,99.8095,VALID,0.0169808,VALID,21.9396,VALID,12,VALID,0,
2009-06-07, 00:40:00,VALID,916.988,VALID,0,VALID,99.939,VALID,0.0339617,VALID,21.9069,VALID,12,VALID,0,
2009-06-07, 00:41:00,VALID,916.997,VALID,0,VALID,100,VALID,-0.0169808,VALID,21.8985,VALID,12,VALID,0,
2009-06-07, 00:42:00,VALID,916.989,VALID,0,VALID,100,VALID,-0.0849042,VALID,21.8894,VALID,12,VALID,0,
2009-06-07, 00:43:00,VALID,916.988,VALID,0,VALID,100,VALID,-0.0509425,VALID,21.9018,VALID,12,VALID,0,
2009-06-07, 00:44:00,VALID,916.968,VALID,0,VALID,100,VALID,-0.0849042,VALID,21.9286,VALID,12,VALID,0,
2009-06-07, 00:45:00,VALID,916.943,VALID,0,VALID,100,VALID,-0.0509425,VALID,21.9381,VALID,13,VALID,0,
2009-06-07, 00:46:00,VALID,916.944,VALID,0,VALID,100,VALID,-0.0339617,VALID,21.9567,VALID,12,VALID,0,
2009-06-07, 00:47:00,VALID,916.948,VALID,0,VALID,100,VALID,-0.0679233,VALID,21.9667,VALID,12,VALID,0,
2009-06-07, 00:48:00,VALID,916.96,VALID,0,VALID,100,VALID,-0.0509425,VALID,22,VALID,12,VALID,0,
2009-06-07, 00:49:00,VALID,916.952,VALID,0,VALID,99.9875,VALID,-0.101885,VALID,22.0098,VALID,12,VALID,0,
2009-06-07, 00:50:00,VALID,916.967,VALID,0,VALID,99.9863,VALID,-0.0509425,VALID,21.9835,VALID,12,VALID,0,
2009-06-07, 00:51:00,VALID,916.975,VALID,0,VALID,100,VALID,-0.0679233,VALID,21.9732,VALID,12,VALID,0,
2009-06-07, 00:52:00,VALID,916.957,VALID,0,VALID,100,VALID,-0.0679233,VALID,21.9703,VALID,13,VALID,0,
2009-06-07, 00:53:00,VALID,916.939,VALID,0,VALID,100,VALID,-0.0679233,VALID,21.9903,VALID,13,VALID,0,
2009-06-07, 00:54:00,VALID,916.932,VALID,0,VALID,100,VALID,-0.0849042,VALID,22.0033,VALID,27,VALID,0,
2009-06-07, 00:55:00,VALID,916.909,VALID,0,VALID,100,VALID,-0.0679233,VALID,22.0252,VALID,31,VALID,0,
2009-06-07, 00:56:00,VALID,916.897,VALID,0,VALID,100,VALID,-0.0509425,VALID,22.0512,VALID,31,VALID,0,
2009-06-07, 00:57:00,VALID,916.875,VALID,0,VALID,100,VALID,-0.0509425,VALID,22.0482,VALID,31,VALID,0,
2009-06-07, 00:58:00,VALID,916.869,VALID,0,VALID,99.9354,VALID,-0.0679233,VALID,22.0328,VALID,31,VALID,0,
2009-06-07, 00:59:00,VALID,916.837,VALID,0,VALID,99.8756,VALID,-0.0169808,VALID,21.9773,VALID,31,VALID,0,
2009-06-07, 01:00:00,VALID,916.811,VALID,0,VALID,99.9687,VALID,-0.0509425,VALID,21.9313,VALID,66,VALID,0,
2009-06-07, 01:01:00,VALID,916.783,VALID,0,VALID,100,VALID,-0.0169808,VALID,21.9343,VALID,101,VALID,0,
2009-06-07, 01:02:00,VALID,916.759,VALID,0,VALID,100,VALID,0,VALID,21.9251,VALID,102,VALID,0,
2009-06-07, 01:03:00,VALID,916.723,VALID,0,VALID,100,VALID,-0.0679233,VALID,21.9026,VALID,129,VALID,0,
2009-06-07, 01:04:00,VALID,916.675,VALID,0,VALID,100,VALID,-0.0169808,VALID,21.8829,VALID,172,VALID,0,
2009-06-07, 01:05:00,VALID,916.629,VALID,0,VALID,100,VALID,-0.0509425,VALID,21.8669,VALID,181,VALID,0,
2009-06-07, 01:06:00,VALID,916.588,VALID,0,VALID,100,VALID,-0.0509425,VALID,21.8401,VALID,189,VALID,0,
2009-06-07, 01:07:00,VALID,916.578,VALID,0,VALID,100,VALID,-0.0169808,VALID,21.8342,VALID,188,VALID,0,
2009-06-07, 01:08:00,VALID,916.577,VALID,0,VALID,100,VALID,-0.0679233,VALID,21.8277,VALID,188,VALID,0,
2009-06-07, 01:09:00,VALID,916.568,VALID,0,VALID,100,VALID,-0.0509425,VALID,21.8412,VALID,195,VALID,0,
2009-06-07, 01:10:00,VALID,916.57,VALID,0,VALID,100,VALID,-0.0169808,VALID,21.8339,VALID,202,VALID,0,
2009-06-07, 01:11:00,VALID,916.557,VALID,0,VALID,100,VALID,-0.0169808,VALID,21.8371,VALID,220,VALID,0,
2009-06-07, 01:12:00,VALID,916.563,VALID,0,VALID,100,VALID,-0.0339617,VALID,21.8203,VALID,225,VALID,0,
2009-06-07, 01:13:00,VALID,916.566,VALID,0,VALID,100,VALID,-0.0339617,VALID,21.8271,VALID,225,VALID,0,
2009-06-07, 01:14:00,VALID,916.549,VALID,0,VALID,100,VALID,-0.0339617,VALID,21.8268,VALID,210,VALID,0,
2009-06-07, 01:15:00,VALID,916.544,VALID,0,VALID,100,VALID,-0.0509425,VALID,21.8271,VALID,205,VALID,0,
2009-06-07, 01:16:00,VALID,916.517,VALID,0,VALID,100,VALID,-0.0509425,VALID,21.8241,VALID,205,VALID,0,
2009-06-07, 01:17:00,VALID,916.496,VALID,0,VALID,100,VALID,-0.0339617,VALID,21.8176,VALID,205,VALID,0,
2009-06-07, 01:18:00,VALID,916.471,VALID,0,VALID,100,VALID,-0.0169808,VALID,21.8236,VALID,205,VALID,0,
2009-06-07, 01:19:00,VALID,916.443,VALID,0,VALID,100,VALID,-0.0169808,VALID,21.8203,VALID,205,VALID,0,
2009-06-07, 01:20:00,VALID,916.418,VALID,0,VALID,100,VALID,-0.0169808,VALID,21.8504,VALID,205,VALID,0,
2009-06-07, 01:21:00,VALID,916.394,VALID,0,VALID,100,VALID,-0.0169808,VALID,21.8561,VALID,205,VALID,0,
2009-06-07, 01:22:00,VALID,916.369,VALID,0,VALID,100,VALID,-0.0509425,VALID,21.8891,VALID,205,VALID,0,
2009-06-07, 01:23:00,VALID,916.34,VALID,0,VALID,100,VALID,-0.0339617,VALID,21.9345,VALID,279,VALID,0,
2009-06-07, 01:24:00,VALID,916.323,VALID,0,VALID,100,VALID,-0.0339617,VALID,21.9446,VALID,4,VALID,0,
2009-06-07, 01:25:00,VALID,916.315,VALID,0,VALID,100,VALID,0.0679233,VALID,21.9391,VALID,4,VALID,0,
2009-06-07, 01:26:00,VALID,916.305,VALID,0,VALID,100,VALID,0.0339617,VALID,21.98,VALID,4,VALID,0,
2009-06-07, 01:27:00,VALID,916.293,VALID,0,VALID,99.9926,VALID,-0.0849042,VALID,21.951,VALID,4,VALID,0,
2009-06-07, 01:28:00,VALID,916.296,VALID,0,VALID,99.9316,VALID,-0.0679233,VALID,21.8891,VALID,4,VALID,0,
2009-06-07, 01:29:00,VALID,916.28,VALID,0,VALID,99.984,VALID,-0.0679233,VALID,21.8382,VALID,4,VALID,0,
2009-06-07, 01:30:00,VALID,916.268,VALID,0,VALID,100,VALID,-0.101885,VALID,21.7892,VALID,61,VALID,0,
2009-06-07, 01:31:00,VALID,916.25,VALID,0,VALID,100,VALID,-0.0849042,VALID,21.7267,VALID,73,VALID,0,
2009-06-07, 01:32:00,VALID,916.247,VALID,0,VALID,100,VALID,-0.101885,VALID,21.7081,VALID,73,VALID,0,
2009-06-07, 01:33:00,VALID,916.241,VALID,0,VALID,100,VALID,-0.118866,VALID,21.6821,VALID,81,VALID,0,
2009-06-07, 01:34:00,VALID,916.216,VALID,0,VALID,100,VALID,-0.0339617,VALID,21.6491,VALID,113,VALID,0,
2009-06-07, 01:35:00,VALID,916.185,VALID,0,VALID,100,VALID,-0.0679233,VALID,21.6364,VALID,130,VALID,0,
2009-06-07, 01:36:00,VALID,916.158,VALID,0,VALID,100,VALID,-0.118866,VALID,21.6039,VALID,120,VALID,0,
2009-06-07, 01:37:00,VALID,916.126,VALID,0,VALID,100,VALID,-0.0509425,VALID,21.6071,VALID,120,VALID,0,
2009-06-07, 01:38:00,VALID,916.114,VALID,0,VALID,100,VALID,-0.0509425,VALID,21.6034,VALID,121,VALID,0,
2009-06-07, 01:39:00,VALID,916.092,VALID,0,VALID,100,VALID,-0.101885,VALID,21.5942,VALID,133,VALID,0,
2009-06-07, 01:40:00,VALID,916.092,VALID,0,VALID,100,VALID,-0.0679233,VALID,21.5841,VALID,133,VALID,0,
2009-06-07, 01:41:00,VALID,916.08,VALID,0,VALID,100,VALID,-0.101885,VALID,21.5712,VALID,133,VALID,0,
2009-06-07, 01:42:00,VALID,916.088,VALID,0,VALID,100,VALID,-0.101885,VALID,21.572,VALID,133,VALID,0,
2009-06-07, 01:43:00,VALID,916.101,VALID,0,VALID,100,VALID,-0.101885,VALID,21.5747,VALID,133,VALID,0,
2009-06-07, 01:44:00,VALID,916.113,VALID,0,VALID,100,VALID,-0.118866,VALID,21.5682,VALID,133,VALID,0,
2009-06-07, 01:45:00,VALID,916.107,VALID,0,VALID,100,VALID,-0.118866,VALID,21.575,VALID,133,VALID,0,
2009-06-07, 01:46:00,VALID,916.113,VALID,0,VALID,100,VALID,-0.152827,VALID,21.5647,VALID,133,VALID,0,
2009-06-07, 01:47:00,VALID,916.102,VALID,0,VALID,100,VALID,-0.135847,VALID,21.5717,VALID,133,VALID,0,
2009-06-07, 01:48:00,VALID,916.121,VALID,0,VALID,100,VALID,-0.118866,VALID,21.6109,VALID,134,VALID,0,
2009-06-07, 01:49:00,VALID,916.131,VALID,0,VALID,100,VALID,-0.118866,VALID,21.6169,VALID,134,VALID,0,
2009-06-07, 01:50:00,VALID,916.159,VALID,0,VALID,100,VALID,-0.118866,VALID,21.6366,VALID,134,VALID,0,
2009-06-07, 01:51:00,VALID,916.154,VALID,0,VALID,100,VALID,-0.101885,VALID,21.6467,VALID,135,VALID,0,
2009-06-07, 01:52:00,VALID,916.153,VALID,0,VALID,100,VALID,-0.118866,VALID,21.6561,VALID,137,VALID,0,
2009-06-07, 01:53:00,VALID,916.144,VALID,0,VALID,100,VALID,-0.118866,VALID,21.6759,VALID,137,VALID,0,
2009-06-07, 01:54:00,VALID,916.123,VALID,0,VALID,100,VALID,-0.0679233,VALID,21.6718,VALID,150,VALID,0,
2009-06-07, 01:55:00,VALID,916.114,VALID,0,VALID,100,VALID,-0.101885,VALID,21.6748,VALID,183,VALID,0,
2009-06-07, 01:56:00,VALID,916.099,VALID,0,VALID,100,VALID,-0.101885,VALID,21.6983,VALID,185,VALID,0,
2009-06-07, 01:57:00,VALID,916.109,VALID,0,VALID,100,VALID,-0.101885,VALID,21.688,VALID,207,VALID,0,
2009-06-07, 01:58:00,VALID,916.136,VALID,0,VALID,100,VALID,-0.101885,VALID,21.6851,VALID,228,VALID,0,
2009-06-07, 01:59:00,VALID,916.153,VALID,0,VALID,100,VALID,-0.101885,VALID,21.6715,VALID,230,VALID,0,
2009-06-07, 02:00:00,VALID,916.156,VALID,0,VALID,100,VALID,-0.0849042,VALID,21.655,VALID,240,VALID,0,
2009-06-07, 02:01:00,VALID,916.146,VALID,0,VALID,100,VALID,-0.135847,VALID,21.6393,VALID,231,VALID,0,
2009-06-07, 02:02:00,VALID,916.113,VALID,0,VALID,100,VALID,-0.101885,VALID,21.6499,VALID,219,VALID,0,
2009-06-07, 02:03:00,VALID,916.069,VALID,0,VALID,100,VALID,-0.0509425,VALID,21.6423,VALID,227,VALID,0.125,
2009-06-07, 02:04:00,VALID,916.054,VALID,0,VALID,100,VALID,-0.101885,VALID,21.6226,VALID,222,VALID,0.0136265,
2009-06-07, 02:05:00,VALID,916.03,VALID,0,VALID,100,VALID,-0.101885,VALID,21.6393,VALID,236,VALID,0,
2009-06-07, 02:06:00,VALID,916.024,VALID,0,VALID,100,VALID,-0.101885,VALID,21.6358,VALID,248,VALID,0,
2009-06-07, 02:07:00,VALID,916.034,VALID,0,VALID,100,VALID,-0.101885,VALID,21.632,VALID,232,VALID,0,
2009-06-07, 02:08:00,VALID,916.037,VALID,0,VALID,100,VALID,-0.101885,VALID,21.6358,VALID,224,VALID,0,
2009-06-07, 02:09:00,VALID,916.02,VALID,0,VALID,100,VALID,-0.0679233,VALID,21.6355,VALID,231,VALID,0,
2009-06-07, 02:10:00,VALID,916.025,VALID,0,VALID,100,VALID,-0.0849042,VALID,21.6355,VALID,235,VALID,0,
2009-06-07, 02:11:00,VALID,916.023,VALID,0,VALID,100,VALID,-0.0339617,VALID,21.6315,VALID,247,VALID,0,
2009-06-07, 02:12:00,VALID,916.011,VALID,0,VALID,100,VALID,-0.0169808,VALID,21.6309,VALID,247,VALID,0,
2009-06-07, 02:13:00,VALID,916.014,VALID,0,VALID,100,VALID,0.0169808,VALID,21.6377,VALID,247,VALID,0,
2009-06-07, 02:14:00,VALID,916.017,VALID,0,VALID,100,VALID,0,VALID,21.6439,VALID,218,VALID,0,
2009-06-07, 02:15:00,VALID,916.01,VALID,0,VALID,100,VALID,0.0339617,VALID,21.6466,VALID,201,VALID,0,
2009-06-07, 02:16:00,VALID,916.013,VALID,0,VALID,100,VALID,0.0169808,VALID,21.6371,VALID,195,VALID,0,
2009-06-07, 02:17:00,VALID,916,VALID,0,VALID,100,VALID,0.0169808,VALID,21.6212,VALID,180,VALID,0,
2009-06-07, 02:18:00,VALID,915.976,VALID,0,VALID,100,VALID,0.0509425,VALID,21.6077,VALID,180,VALID,0,
2009-06-07, 02:19:00,VALID,915.968,VALID,0,VALID,100,VALID,0.0339617,VALID,21.5849,VALID,180,VALID,0,
2009-06-07, 02:20:00,VALID,915.947,VALID,0,VALID,100,VALID,0.0509425,VALID,21.5557,VALID,179,VALID,0,
2009-06-07, 02:21:00,VALID,915.92,VALID,0,VALID,100,VALID,0.0679233,VALID,21.5135,VALID,175,VALID,0,
2009-06-07, 02:22:00,VALID,915.905,VALID,0,VALID,100,VALID,0.0339617,VALID,21.494,VALID,162,VALID,0,
2009-06-07, 02:23:00,VALID,915.877,VALID,0,VALID,100,VALID,0,VALID,21.4751,VALID,150,VALID,0,
2009-06-07, 02:24:00,VALID,915.861,VALID,0,VALID,100,VALID,0.0339617,VALID,21.4624,VALID,150,VALID,0,
2009-06-07, 02:25:00,VALID,915.847,VALID,0,VALID,100,VALID,0,VALID,21.4489,VALID,150,VALID,0,
2009-06-07, 02:26:00,VALID,915.844,VALID,0,VALID,100,VALID,0.0169808,VALID,21.4486,VALID,150,VALID,0,
2009-06-07, 02:27:00,VALID,915.827,VALID,0,VALID,100,VALID,0,VALID,21.4589,VALID,148,VALID,0,
2009-06-07, 02:28:00,VALID,915.809,VALID,0,VALID,100,VALID,0,VALID,21.4524,VALID,140,VALID,0,
2009-06-07, 02:29:00,VALID,915.792,VALID,0,VALID,100,VALID,0,VALID,21.4326,VALID,156,VALID,0,
2009-06-07, 02:30:00,VALID,915.774,VALID,0,VALID,100,VALID,-0.0169808,VALID,21.4237,VALID,146,VALID,0,
2009-06-07, 02:31:00,VALID,915.768,VALID,0,VALID,100,VALID,0,VALID,21.3912,VALID,157,VALID,0,
2009-06-07, 02:32:00,VALID,915.758,VALID,0,VALID,100,VALID,0,VALID,21.3783,VALID,160,VALID,0,
2009-06-07, 02:33:00,VALID,915.759,VALID,0,VALID,100,VALID,0,VALID,21.3547,VALID,158,VALID,0,
2009-06-07, 02:34:00,VALID,915.743,VALID,0,VALID,100,VALID,-0.0169808,VALID,21.352,VALID,159,VALID,0,
2009-06-07, 02:35:00,VALID,915.728,VALID,0,VALID,100,VALID,0,VALID,21.3452,VALID,158,VALID,0,
2009-06-07, 02:36:00,VALID,915.742,VALID,0,VALID,100,VALID,0,VALID,21.339,VALID,149,VALID,0,
2009-06-07, 02:37:00,VALID,915.744,VALID,0,VALID,100,VALID,-0.0169808,VALID,21.3398,VALID,139,VALID,0,
2009-06-07, 02:38:00,VALID,915.758,VALID,0,VALID,100,VALID,-0.0169808,VALID,21.3166,VALID,138,VALID,0,
2009-06-07, 02:39:00,VALID,915.778,VALID,0,VALID,100,VALID,-0.0169808,VALID,21.3036,VALID,169,VALID,0,
2009-06-07, 02:40:00,VALID,915.8,VALID,0,VALID,100,VALID,0,VALID,21.3101,VALID,177,VALID,0,
2009-06-07, 02:41:00,VALID,915.819,VALID,0,VALID,100,VALID,-0.0509425,VALID,21.3071,VALID,178,VALID,0,
2009-06-07, 02:42:00,VALID,915.833,VALID,0,VALID,100,VALID,-0.0339617,VALID,21.3106,VALID,177,VALID,0,
2009-06-07, 02:43:00,VALID,915.837,VALID,0,VALID,100,VALID,-0.0509425,VALID,21.2982,VALID,175,VALID,0,
2009-06-07, 02:44:00,VALID,915.839,VALID,0,VALID,100,VALID,-0.0509425,VALID,21.2911,VALID,174,VALID,0,
2009-06-07, 02:45:00,VALID,915.835,VALID,0,VALID,100,VALID,-0.0339617,VALID,21.2776,VALID,172,VALID,0.0379192,
2009-06-07, 02:46:00,VALID,915.854,VALID,0,VALID,100,VALID,-0.0339617,VALID,21.2749,VALID,169,VALID,0,
2009-06-07, 02:47:00,VALID,915.856,VALID,0,VALID,100,VALID,-0.101885,VALID,21.2584,VALID,166,VALID,0,
2009-06-07, 02:48:00,VALID,915.857,VALID,0,VALID,100,VALID,-0.0169808,VALID,21.2357,VALID,166,VALID,0,
2009-06-07, 02:49:00,VALID,915.868,VALID,0,VALID,100,VALID,-0.0169808,VALID,21.2097,VALID,166,VALID,0,
2009-06-07, 02:50:00,VALID,915.872,VALID,0,VALID,100,VALID,-0.0849042,VALID,21.1935,VALID,166,VALID,0,
2009-06-07, 02:51:00,VALID,915.861,VALID,0,VALID,100,VALID,-0.0849042,VALID,21.1808,VALID,160,VALID,0,
2009-06-07, 02:52:00,VALID,915.854,VALID,0,VALID,100,VALID,-0.0509425,VALID,21.1415,VALID,155,VALID,0,
2009-06-07, 02:53:00,VALID,915.834,VALID,0,VALID,100,VALID,-0.0339617,VALID,21.1026,VALID,146,VALID,0,
2009-06-07, 02:54:00,VALID,915.825,VALID,0,VALID,100,VALID,-0.0679233,VALID,21.0701,VALID,140,VALID,0,
2009-06-07, 02:55:00,VALID,915.797,VALID,0,VALID,100,VALID,-0.0509425,VALID,21.0509,VALID,140,VALID,0,
2009-06-07, 02:56:00,VALID,915.77,VALID,0,VALID,100,VALID,-0.0679233,VALID,21.0312,VALID,144,VALID,0,
2009-06-07, 02:57:00,VALID,915.742,VALID,0,VALID,100,VALID,-0.0169808,VALID,21.0274,VALID,143,VALID,0,
2009-06-07, 02:58:00,VALID,915.729,VALID,0,VALID,100,VALID,-0.0849042,VALID,21.0144,VALID,135,VALID,0,
2009-06-07, 02:59:00,VALID,915.729,VALID,0,VALID,100,VALID,-0.0679233,VALID,20.9952,VALID,125,VALID,0,
2009-06-07, 03:00:00,VALID,915.732,VALID,0,VALID,100,VALID,-0.0169808,VALID,20.979,VALID,121,VALID,0,
2009-06-07, 03:01:00,VALID,915.752,VALID,0,VALID,100,VALID,0,VALID,20.9663,VALID,126,VALID,0,
2009-06-07, 03:02:00,VALID,915.773,VALID,0,VALID,100,VALID,-0.0679233,VALID,20.9435,VALID,128,VALID,0,
2009-06-07, 03:03:00,VALID,915.792,VALID,0,VALID,100,VALID,-0.0339617,VALID,20.9373,VALID,130,VALID,0.0533854,
2009-06-07, 03:04:00,VALID,915.824,VALID,0,VALID,100,VALID,-0.0169808,VALID,20.9205,VALID,125,VALID,0,
2009-06-07, 03:05:00,VALID,915.85,VALID,0,VALID,100,VALID,-0.0339617,VALID,20.9276,VALID,120,VALID,0.0590701,
2009-06-07, 03:06:00,VALID,915.861,VALID,0,VALID,100,VALID,-0.0169808,VALID,20.9108,VALID,123,VALID,0,
2009-06-07, 03:07:00,VALID,915.854,VALID,0,VALID,100,VALID,-0.0509425,VALID,20.9013,VALID,140,VALID,0,
2009-06-07, 03:08:00,VALID,915.835,VALID,0,VALID,100,VALID,-0.0339617,VALID,20.9176,VALID,141,VALID,0.00109012,
2009-06-07, 03:09:00,VALID,915.791,VALID,0,VALID,100,VALID,-0.0169808,VALID,20.9365,VALID,134,VALID,0.00114329,
2009-06-07, 03:10:00,VALID,915.771,VALID,0,VALID,100,VALID,0,VALID,20.9398,VALID,144,VALID,0.000726744,
2009-06-07, 03:11:00,VALID,915.735,VALID,0,VALID,100,VALID,0,VALID,20.9368,VALID,140,VALID,0.0169271,
2009-06-07, 03:12:00,VALID,915.7,VALID,0,VALID,100,VALID,-0.0339617,VALID,20.9468,VALID,137,VALID,0.00111607,
2009-06-07, 03:13:00,VALID,915.669,VALID,0,VALID,100,VALID,-0.0169808,VALID,20.9533,VALID,151,VALID,0.00342988,
2009-06-07, 03:14:00,VALID,915.65,VALID,0,VALID,100,VALID,-0.0339617,VALID,20.9533,VALID,161,VALID,0.00109012,
2009-06-07, 03:15:00,VALID,915.625,VALID,0,VALID,100,VALID,-0.0509425,VALID,20.9503,VALID,183,VALID,0,
2009-06-07, 03:16:00,VALID,915.602,VALID,0,VALID,100,VALID,-0.0169808,VALID,20.9368,VALID,184,VALID,0.00136719,
2009-06-07, 03:17:00,VALID,915.598,VALID,0,VALID,100,VALID,-0.0339617,VALID,20.93,VALID,168,VALID,0.00427827,
2009-06-07, 03:18:00,VALID,915.572,VALID,0,VALID,100,VALID,-0.0339617,VALID,20.9238,VALID,172,VALID,0.00416667,
2009-06-07, 03:19:00,VALID,915.572,VALID,0,VALID,100,VALID,0,VALID,20.9135,VALID,162,VALID,0,
2009-06-07, 03:20:00,VALID,915.56,VALID,0,VALID,100,VALID,0,VALID,20.9073,VALID,137,VALID,0,
2009-06-07, 03:21:00,VALID,915.556,VALID,0,VALID,100,VALID,-0.0339617,VALID,20.8813,VALID,109,VALID,0,
2009-06-07, 03:22:00,VALID,915.554,VALID,0,VALID,100,VALID,-0.0339617,VALID,20.8686,VALID,107,VALID,0,
2009-06-07, 03:23:00,VALID,915.547,VALID,0,VALID,100,VALID,0,VALID,20.8389,VALID,128,VALID,0,
2009-06-07, 03:24:00,VALID,915.554,VALID,0,VALID,100,VALID,0,VALID,20.8167,VALID,111,VALID,0,
2009-06-07, 03:25:00,VALID,915.532,VALID,0,VALID,100,VALID,-0.0169808,VALID,20.7872,VALID,118,VALID,0,
2009-06-07, 03:26:00,VALID,915.516,VALID,0,VALID,100,VALID,0,VALID,20.7675,VALID,124,VALID,0,
2009-06-07, 03:27:00,VALID,915.498,VALID,0,VALID,100,VALID,-0.0339617,VALID,20.752,VALID,126,VALID,0,
2009-06-07, 03:28:00,VALID,915.503,VALID,0,VALID,100,VALID,0,VALID,20.752,VALID,139,VALID,0.152083,
2009-06-07, 03:29:00,VALID,915.508,VALID,0,VALID,100,VALID,-0.0169808,VALID,20.7588,VALID,132,VALID,0.00093006,
2009-06-07, 03:30:00,VALID,915.51,VALID,0,VALID,100,VALID,0,VALID,20.7423,VALID,122,VALID,0.00410156,
2009-06-07, 03:31:00,VALID,915.499,VALID,0,VALID,100,VALID,0.0169808,VALID,20.7161,VALID,109,VALID,0.0025436,
2009-06-07, 03:32:00,VALID,915.491,VALID,0,VALID,100,VALID,-0.0339617,VALID,20.6679,VALID,76,VALID,0,
2009-06-07, 03:33:00,VALID,915.487,VALID,0,VALID,100,VALID,-0.0169808,VALID,20.6289,VALID,61,VALID,0,
2009-06-07, 03:34:00,VALID,915.479,VALID,0,VALID,100,VALID,0,VALID,20.5795,VALID,59,VALID,0,
2009-06-07, 03:35:00,VALID,915.478,VALID,0,VALID,100,VALID,0,VALID,20.5373,VALID,57,VALID,0,
2009-06-07, 03:36:00,VALID,915.494,VALID,0,VALID,100,VALID,0,VALID,20.5146,VALID,57,VALID,0,
2009-06-07, 03:37:00,VALID,915.491,VALID,0,VALID,100,VALID,0,VALID,20.5148,VALID,57,VALID,0,
2009-06-07, 03:38:00,VALID,915.51,VALID,0,VALID,100,VALID,0,VALID,20.5213,VALID,57,VALID,0,
2009-06-07, 03:39:00,VALID,915.542,VALID,0,VALID,100,VALID,0.0339617,VALID,20.5111,VALID,57,VALID,0,
2009-06-07, 03:40:00,VALID,915.559,VALID,0,VALID,100,VALID,0,VALID,20.5016,VALID,57,VALID,0,
2009-06-07, 03:41:00,VALID,915.561,VALID,0,VALID,100,VALID,0.0169808,VALID,20.4921,VALID,57,VALID,0,
2009-06-07, 03:42:00,VALID,915.579,VALID,0,VALID,100,VALID,0,VALID,20.524,VALID,63,VALID,0,
2009-06-07, 03:43:00,VALID,915.594,VALID,0,VALID,100,VALID,0.0169808,VALID,20.563,VALID,61,VALID,0,
2009-06-07, 03:44:00,VALID,915.594,VALID,0,VALID,100,VALID,0.0169808,VALID,20.5692,VALID,74,VALID,0,
2009-06-07, 03:45:00,VALID,915.605,VALID,0,VALID,100,VALID,0,VALID,20.6027,VALID,73,VALID,0,
2009-06-07, 03:46:00,VALID,915.612,VALID,0,VALID,100,VALID,0,VALID,20.5865,VALID,47,VALID,0,
2009-06-07, 03:47:00,VALID,915.644,VALID,0,VALID,100,VALID,-0.0169808,VALID,20.5927,VALID,54,VALID,0,
2009-06-07, 03:48:00,VALID,915.662,VALID,0,VALID,100,VALID,-0.0169808,VALID,20.6022,VALID,45,VALID,0,
2009-06-07, 03:49:00,VALID,915.673,VALID,0,VALID,100,VALID,0,VALID,20.6282,VALID,46,VALID,0,
2009-06-07, 03:50:00,VALID,915.658,VALID,0,VALID,100,VALID,0.0169808,VALID,20.6379,VALID,46,VALID,0,
2009-06-07, 03:51:00,VALID,915.666,VALID,0,VALID,100,VALID,0,VALID,20.6447,VALID,61,VALID,0,